| time (UTC) | temp C | wind direction | speed KPH | gust KPH | rain 1hr cm | rain 24hr cm | rain mn cm | humidity % | barometer mb |
| 20260507070550 | 10 | 282 | 4.8 | 9.7 | 0.00 | 0.71 | 0.03 | 92 | 1005.3 |
| 20260507070055 | 10 | 27 | 3.2 | 14.5 | 0.00 | 0.71 | 0.03 | 92 | 1005.0 |
| 20260507065545 | 10 | 342 | 6.4 | 14.5 | 0.00 | 0.71 | 0.03 | 91 | 1005.0 |
| 20260507065045 | 10 | 300 | 8.0 | 14.5 | 0.00 | 0.71 | 0.03 | 92 | 1005.5 |
| 20260507064554 | 10 | 280 | 4.8 | 11.3 | 0.00 | 0.71 | 0.03 | 92 | 1005.4 |
| 20260507064052 | 10 | 267 | 3.2 | 12.9 | 0.00 | 0.71 | 0.03 | 92 | 1005.1 |
| 20260507063545 | 10 | 300 | 6.4 | 12.9 | 0.00 | 0.71 | 0.03 | 93 | 1005.2 |
| 20260507063059 | 10 | 278 | 6.4 | 12.9 | 0.00 | 0.71 | 0.03 | 93 | 1005.1 |
| 20260507062549 | 10 | 264 | 6.4 | 14.5 | 0.00 | 0.71 | 0.03 | 93 | 1005.2 |
| 20260507062047 | 10 | 255 | 8.0 | 14.5 | 0.00 | 0.71 | 0.03 | 93 | 1005.3 |
| 20260507061551 | 10 | 277 | 4.8 | 8.0 | 0.00 | 0.71 | 0.03 | 93 | 1005.2 |
| 20260507061047 | 10 | 271 | 3.2 | 9.7 | 0.00 | 0.71 | 0.03 | 93 | 1005.0 |
| 20260507060546 | 10 | 328 | 3.2 | 9.7 | 0.00 | 0.71 | 0.03 | 93 | 1004.8 |
| 20260507060057 | 10 | 267 | 3.2 | 9.7 | 0.00 | 0.71 | 0.03 | 93 | 1004.8 |
| 20260507055547 | 10 | 252 | 3.2 | 17.7 | 0.00 | 0.71 | 0.03 | 93 | 1005.0 |
| 20260507055046 | 10 | 297 | 4.8 | 17.7 | 0.00 | 0.71 | 0.03 | 93 | 1004.9 |
| 20260507054554 | 10 | 271 | 8.0 | 17.7 | 0.00 | 0.71 | 0.03 | 93 | 1005.0 |
| 20260507054045 | 10 | 298 | 6.4 | 14.5 | 0.00 | 0.71 | 0.03 | 93 | 1004.8 |
| 20260507053547 | 11 | 292 | 9.7 | 14.5 | 0.00 | 0.71 | 0.03 | 92 | 1004.8 |
| 20260507053049 | 11 | 304 | 4.8 | 14.5 | 0.00 | 0.71 | 0.03 | 93 | 1004.7 |
| 20260507052545 | 11 | 264 | 6.4 | 17.7 | 0.00 | 0.71 | 0.03 | 93 | 1004.5 |
| 20260507052045 | 11 | 259 | 9.7 | 17.7 | 0.00 | 0.71 | 0.03 | 93 | 1004.8 |
| 20260507051558 | 11 | 232 | 8.0 | 16.1 | 0.00 | 0.71 | 0.03 | 93 | 1005.0 |
| 20260507051048 | 11 | 300 | 6.4 | 12.9 | 0.00 | 0.71 | 0.03 | 93 | 1004.8 |
| 20260507050550 | 11 | 256 | 4.8 | 17.7 | 0.03 | 0.71 | 0.03 | 93 | 1004.7 |
| 20260507050050 | 11 | 294 | 6.4 | 17.7 | 0.03 | 0.71 | 0.03 | 93 | 1004.7 |
| 20260507045549 | 11 | 290 | 8.0 | 19.3 | 0.03 | 0.71 | 0.03 | 93 | 1004.7 |
| 20260507045046 | 11 | 269 | 6.4 | 19.3 | 0.03 | 0.71 | 0.03 | 94 | 1004.8 |
| 20260507044558 | 11 | 314 | 9.7 | 19.3 | 0.03 | 0.71 | 0.03 | 94 | 1004.9 |
| 20260507044047 | 12 | 264 | 3.2 | 12.9 | 0.03 | 0.71 | 0.03 | 95 | 1004.7 |
| 20260507043547 | 12 | 300 | 8.0 | 12.9 | 0.03 | 0.71 | 0.03 | 94 | 1004.8 |
| 20260507043055 | 12 | 284 | 6.4 | 17.7 | 0.03 | 0.71 | 0.03 | 94 | 1004.4 |
| 20260507042547 | 12 | 228 | 4.8 | 17.7 | 0.03 | 0.71 | 0.03 | 93 | 1004.3 |
| 20260507042047 | 12 | 236 | 11.3 | 24.1 | 0.03 | 0.71 | 0.03 | 93 | 1004.3 |
| 20260507041551 | 12 | 267 | 4.8 | 24.1 | 0.03 | 0.71 | 0.03 | 94 | 1004.1 |
| 20260507041050 | 12 | 311 | 8.0 | 24.1 | 0.00 | 0.69 | 0.00 | 94 | 1004.2 |
| 20260507040547 | 12 | 254 | 4.8 | 12.9 | 0.03 | 0.69 | 0.00 | 94 | 1004.3 |
| 20260507040055 | 12 | 279 | 4.8 | 19.3 | 0.03 | 0.69 | 0.00 | 94 | 1004.3 |
| 20260507035547 | 12 | 281 | 8.0 | 19.3 | 0.03 | 0.69 | 0.69 | 94 | 1004.2 |
| 20260507035047 | 13 | 259 | 11.3 | 19.3 | 0.05 | 0.69 | 0.69 | 95 | 1004.3 |
| 20260507034556 | 13 | 302 | 8.0 | 17.7 | 0.05 | 0.69 | 0.69 | 95 | 1004.4 |
| 20260507034047 | 13 | 266 | 8.0 | 17.7 | 0.05 | 0.69 | 0.69 | 96 | 1004.4 |
| 20260507033547 | 13 | 264 | 8.0 | 17.7 | 0.05 | 0.69 | 0.69 | 97 | 1004.5 |
| 20260507033055 | 13 | 277 | 11.3 | 25.7 | 0.05 | 0.69 | 0.69 | 98 | 1004.5 |
| 20260507032547 | 13 | 270 | 12.9 | 25.7 | 0.05 | 0.69 | 0.69 | 100 | 1004.3 |
| 20260507032050 | 12 | 278 | 4.8 | 16.1 | 0.05 | 0.69 | 0.69 | 100 | 1004.3 |
| 20260507031553 | 12 | 211 | 3.2 | 14.5 | 0.05 | 0.69 | 0.69 | 100 | 1003.9 |
| 20260507031049 | 12 | 299 | 4.8 | 14.5 | 0.05 | 0.69 | 0.69 | 99 | 1004.0 |
| 20260507030546 | 12 | 293 | 1.6 | 6.4 | 0.03 | 0.66 | 0.66 | 99 | 1003.9 |
| 20260507030054 | 12 | 174 | 1.6 | 6.4 | 0.03 | 0.66 | 0.66 | 99 | 1003.6 |
| 20260507025549 | 12 | 0 | 0.0 | 4.8 | 0.03 | 0.66 | 0.66 | 99 | 1003.7 |
| 20260507025050 | 12 | 165 | 3.2 | 8.0 | 0.00 | 0.64 | 0.64 | 99 | 1003.7 |
| 20260507024606 | 12 | 143 | 1.6 | 8.0 | 0.00 | 0.64 | 0.64 | 99 | 1003.7 |
| 20260507024047 | 12 | 187 | 3.2 | 8.0 | 0.00 | 0.64 | 0.64 | 99 | 1003.7 |
| 20260507023552 | 12 | 150 | 3.2 | 9.7 | 0.00 | 0.64 | 0.64 | 99 | 1003.8 |
| 20260507023052 | 12 | 160 | 3.2 | 9.7 | 0.00 | 0.64 | 0.64 | 99 | 1003.9 |
| 20260507022549 | 12 | 152 | 6.4 | 9.7 | 0.00 | 0.64 | 0.64 | 99 | 1003.9 |
| 20260507022047 | 12 | 160 | 6.4 | 9.7 | 0.00 | 0.64 | 0.64 | 99 | 1004.0 |
| 20260507021551 | 12 | 172 | 4.8 | 9.7 | 0.00 | 0.64 | 0.64 | 99 | 1003.9 |
| 20260507021047 | 12 | 165 | 6.4 | 11.3 | 0.00 | 0.64 | 0.64 | 99 | 1004.1 |
| 20260507020547 | 12 | 161 | 6.4 | 11.3 | 0.00 | 0.64 | 0.64 | 99 | 1004.2 |
| 20260507020109 | 12 | 157 | 6.4 | 8.0 | 0.00 | 0.64 | 0.64 | 99 | 1004.4 |
| 20260507015546 | 12 | 150 | 3.2 | 8.0 | 0.00 | 0.64 | 0.64 | 99 | 1004.4 |
| 20260507015047 | 12 | 219 | 3.2 | 8.0 | 0.00 | 0.64 | 0.64 | 99 | 1004.4 |
| 20260507014605 | 12 | 139 | 4.8 | 9.7 | 0.00 | 0.64 | 0.64 | 99 | 1004.4 |
| 20260507014047 | 12 | 157 | 4.8 | 9.7 | 0.00 | 0.64 | 0.64 | 99 | 1004.2 |
| 20260507013549 | 12 | 157 | 4.8 | 9.7 | 0.00 | 0.64 | 0.64 | 99 | 1004.4 |
| 20260507013054 | 12 | 208 | 4.8 | 9.7 | 0.00 | 0.64 | 0.64 | 99 | 1004.5 |
| 20260507012546 | 12 | 143 | 3.2 | 9.7 | 0.00 | 0.64 | 0.64 | 99 | 1004.6 |
| 20260507012046 | 11 | 203 | 4.8 | 11.3 | 0.00 | 0.64 | 0.64 | 99 | 1004.4 |
| 20260507011555 | 11 | 165 | 3.2 | 12.9 | 0.00 | 0.64 | 0.64 | 99 | 1004.4 |
| 20260507011045 | 11 | 212 | 4.8 | 12.9 | 0.00 | 0.64 | 0.64 | 99 | 1004.5 |
| 20260507010546 | 11 | 160 | 6.4 | 12.9 | 0.00 | 0.64 | 0.64 | 98 | 1004.5 |
| 20260507010054 | 11 | 182 | 6.4 | 14.5 | 0.00 | 0.64 | 0.64 | 98 | 1004.5 |
| 20260507005546 | 11 | 172 | 8.0 | 14.5 | 0.00 | 0.64 | 0.64 | 98 | 1004.5 |
| 20260507005047 | 11 | 200 | 9.7 | 14.5 | 0.00 | 0.64 | 0.64 | 98 | 1004.6 |
| 20260507004551 | 11 | 185 | 9.7 | 14.5 | 0.00 | 0.64 | 0.64 | 98 | 1004.7 |
| 20260507004046 | 12 | 176 | 8.0 | 14.5 | 0.00 | 0.64 | 0.64 | 98 | 1004.7 |
| 20260507003547 | 12 | 165 | 8.0 | 14.5 | 0.00 | 0.64 | 0.64 | 98 | 1004.6 |
| 20260507003056 | 12 | 152 | 9.7 | 16.1 | 0.00 | 0.64 | 0.64 | 98 | 1004.7 |
| 20260507002547 | 12 | 193 | 12.9 | 16.1 | 0.00 | 0.64 | 0.64 | 98 | 1004.5 |
| 20260507002045 | 12 | 158 | 9.7 | 17.7 | 0.00 | 0.64 | 0.64 | 98 | 1004.5 |
| 20260507001557 | 12 | 160 | 9.7 | 17.7 | 0.00 | 0.64 | 0.64 | 98 | 1004.6 |
| 20260507001046 | 12 | 161 | 11.3 | 20.9 | 0.00 | 0.64 | 0.64 | 98 | 1004.5 |
| 20260507000547 | 12 | 174 | 9.7 | 20.9 | 0.00 | 0.64 | 0.64 | 98 | 1004.5 |
| 20260507000058 | 12 | 172 | 14.5 | 22.5 | 0.00 | 0.64 | 0.64 | 98 | 1004.5 |
| 20260506235546 | 12 | 195 | 8.0 | 22.5 | 0.00 | 0.64 | 0.64 | 98 | 1004.6 |
| 20260506235048 | 12 | 196 | 16.1 | 24.1 | 0.00 | 0.64 | 0.64 | 98 | 1004.6 |
| 20260506234605 | 12 | 167 | 14.5 | 24.1 | 0.00 | 0.64 | 0.64 | 98 | 1004.5 |
| 20260506234046 | 12 | 208 | 9.7 | 24.1 | 0.00 | 0.64 | 0.64 | 98 | 1004.5 |
| 20260506233549 | 12 | 141 | 12.9 | 24.1 | 0.00 | 0.64 | 0.64 | 98 | 1004.6 |
| 20260506233058 | 12 | 184 | 12.9 | 22.5 | 0.00 | 0.64 | 0.64 | 98 | 1004.5 |
| 20260506232546 | 12 | 176 | 9.7 | 20.9 | 0.00 | 0.64 | 0.64 | 98 | 1004.5 |
| 20260506232048 | 12 | 150 | 11.3 | 20.9 | 0.00 | 0.64 | 0.64 | 98 | 1004.7 |
| 20260506231601 | 12 | 139 | 11.3 | 20.9 | 0.00 | 0.64 | 0.64 | 97 | 1004.7 |
| 20260506231048 | 11 | 158 | 8.0 | 20.9 | 0.03 | 0.64 | 0.64 | 97 | 1004.9 |
| 20260506230546 | 11 | 160 | 11.3 | 25.7 | 0.03 | 0.64 | 0.64 | 97 | 1004.8 |
| 20260506230058 | 11 | 159 | 11.3 | 25.7 | 0.03 | 0.64 | 0.64 | 97 | 1004.8 |
| 20260506225547 | 11 | 203 | 8.0 | 24.1 | 0.03 | 0.64 | 0.64 | 97 | 1004.8 |
| 20260506225046 | 11 | 169 | 11.3 | 24.1 | 0.03 | 0.64 | 0.64 | 97 | 1004.7 |
| 20260506224553 | 11 | 162 | 14.5 | 20.9 | 0.03 | 0.64 | 0.64 | 97 | 1004.8 |
| 20260506224045 | 12 | 212 | 12.9 | 24.1 | 0.05 | 0.64 | 0.64 | 97 | 1004.8 |
| 20260506223544 | 12 | 147 | 11.3 | 27.4 | 0.05 | 0.64 | 0.64 | 97 | 1005.0 |
| 20260506223057 | 12 | 157 | 14.5 | 32.2 | 0.08 | 0.64 | 0.64 | 97 | 1004.8 |
| 20260506222546 | 12 | 212 | 12.9 | 32.2 | 0.10 | 0.64 | 0.64 | 97 | 1005.0 |
| 20260506222046 | 12 | 231 | 16.1 | 32.2 | 0.10 | 0.64 | 0.64 | 97 | 1004.9 |
| 20260506221553 | 12 | 140 | 16.1 | 30.6 | 0.13 | 0.64 | 0.64 | 97 | 1004.9 |
| 20260506221046 | 12 | 207 | 16.1 | 27.4 | 0.10 | 0.61 | 0.61 | 97 | 1004.9 |
| 20260506220547 | 12 | 140 | 14.5 | 27.4 | 0.10 | 0.61 | 0.61 | 97 | 1005.0 |
| 20260506220057 | 12 | 202 | 16.1 | 25.7 | 0.13 | 0.61 | 0.61 | 97 | 1005.1 |
| 20260506215546 | 12 | 183 | 14.5 | 25.7 | 0.15 | 0.61 | 0.61 | 97 | 1005.0 |
| 20260506215048 | 12 | 165 | 11.3 | 22.5 | 0.18 | 0.61 | 0.61 | 97 | 1005.1 |
| 20260506214608 | 12 | 195 | 11.3 | 27.4 | 0.18 | 0.61 | 0.61 | 97 | 1005.2 |
| 20260506214047 | 12 | 166 | 11.3 | 27.4 | 0.18 | 0.58 | 0.58 | 97 | 1005.0 |
| 20260506213546 | 12 | 206 | 12.9 | 27.4 | 0.20 | 0.58 | 0.58 | 97 | 1005.4 |
| 20260506213113 | 12 | 201 | 14.5 | 27.4 | 0.18 | 0.56 | 0.56 | 97 | 1005.2 |
| 20260506212546 | 12 | 147 | 12.9 | 24.1 | 0.15 | 0.53 | 0.53 | 97 | 1005.4 |
| 20260506212046 | 12 | 150 | 9.7 | 20.9 | 0.18 | 0.53 | 0.53 | 96 | 1005.5 |
| 20260506211608 | 12 | 184 | 11.3 | 20.9 | 0.15 | 0.51 | 0.51 | 96 | 1005.4 |
| 20260506211046 | 13 | 192 | 11.3 | 20.9 | 0.18 | 0.51 | 0.51 | 96 | 1005.4 |
| 20260506210545 | 13 | 158 | 8.0 | 30.6 | 0.18 | 0.51 | 0.51 | 96 | 1005.7 |
| 20260506205545 | 13 | 139 | 12.9 | 30.6 | 0.13 | 0.46 | 0.46 | 95 | 1005.6 |
| 20260506205044 | 13 | 170 | 11.3 | 27.4 | 0.10 | 0.43 | 0.43 | 95 | 1005.7 |
| 20260506204601 | 13 | 234 | 11.3 | 27.4 | 0.13 | 0.43 | 0.43 | 95 | 1005.7 |
| 20260506204046 | 13 | 186 | 14.5 | 22.5 | 0.10 | 0.41 | 0.41 | 95 | 1005.7 |
| 20260506203548 | 13 | 202 | 11.3 | 22.5 | 0.08 | 0.38 | 0.38 | 95 | 1005.6 |
| 20260506203102 | 13 | 157 | 9.7 | 20.9 | 0.10 | 0.38 | 0.38 | 96 | 1005.7 |
| 20260506202547 | 13 | 150 | 11.3 | 20.9 | 0.10 | 0.38 | 0.38 | 96 | 1005.5 |
| 20260506202049 | 13 | 161 | 11.3 | 19.3 | 0.10 | 0.36 | 0.36 | 96 | 1005.6 |
| 20260506201601 | 13 | 157 | 9.7 | 12.9 | 0.13 | 0.36 | 0.36 | 96 | 1005.4 |
| 20260506201048 | 13 | 139 | 6.4 | 11.3 | 0.25 | 0.33 | 0.33 | 96 | 1005.5 |
| 20260506200546 | 13 | 160 | 6.4 | 14.5 | 0.25 | 0.33 | 0.33 | 96 | 1005.5 |
| 20260506200059 | 13 | 149 | 6.4 | 14.5 | 0.28 | 0.33 | 0.33 | 96 | 1005.3 |
| 20260506195547 | 13 | 145 | 6.4 | 19.3 | 0.28 | 0.33 | 0.33 | 95 | 1005.5 |
| 20260506195046 | 13 | 153 | 11.3 | 19.3 | 0.28 | 0.33 | 0.33 | 95 | 1005.7 |
| 20260506194609 | 13 | 163 | 12.9 | 19.3 | 0.28 | 0.30 | 0.30 | 95 | 1006.2 |
| 20260506194045 | 13 | 140 | 3.2 | 11.3 | 0.30 | 0.30 | 0.30 | 95 | 1005.7 |
| 20260506193547 | 13 | 160 | 6.4 | 11.3 | 0.30 | 0.30 | 0.30 | 94 | 1006.0 |
| 20260506193053 | 13 | 156 | 6.4 | 9.7 | 0.28 | 0.28 | 0.28 | 94 | 1006.2 |
| 20260506192551 | 13 | 205 | 1.6 | 11.3 | 0.28 | 0.28 | 0.28 | 93 | 1006.5 |
| 20260506192045 | 13 | 191 | 6.4 | 14.5 | 0.25 | 0.25 | 0.25 | 93 | 1006.6 |
| 20260506191556 | 13 | 137 | 6.4 | 14.5 | 0.23 | 0.23 | 0.23 | 92 | 1006.6 |
| 20260506191047 | 13 | 191 | 6.4 | 9.7 | 0.08 | 0.08 | 0.08 | 92 | 1006.7 |
| 20260506190549 | 13 | 134 | 1.6 | 9.7 | 0.08 | 0.08 | 0.08 | 91 | 1006.3 |
| 20260506190054 | 14 | 153 | 6.4 | 12.9 | 0.05 | 0.05 | 0.05 | 90 | 1006.4 |
| 20260506185546 | 14 | 162 | 6.4 | 12.9 | 0.05 | 0.05 | 0.05 | 89 | 1006.2 |
| 20260506185049 | 14 | 193 | 8.0 | 12.9 | 0.05 | 0.05 | 0.05 | 88 | 1006.3 |
| 20260506184604 | 14 | 165 | 6.4 | 20.9 | 0.03 | 0.03 | 0.03 | 87 | 1006.7 |
| 20260506184101 | 14 | 195 | 8.0 | 20.9 | 0.00 | 0.00 | 0.00 | 86 | 1006.5 |
| 20260506183550 | 15 | 250 | 4.8 | 20.9 | 0.00 | 0.00 | 0.00 | 85 | 1006.7 |
| 20260506183103 | 15 | 200 | 9.7 | 20.9 | 0.00 | 0.00 | 0.00 | 84 | 1006.4 |
| 20260506182549 | 15 | 196 | 9.7 | 20.9 | 0.00 | 0.00 | 0.00 | 83 | 1006.0 |
| 20260506182052 | 15 | 138 | 11.3 | 29.0 | 0.00 | 0.00 | 0.00 | 83 | 1005.9 |
| 20260506181552 | 15 | 176 | 14.5 | 30.6 | 0.00 | 0.00 | 0.00 | 83 | 1006.0 |
| 20260506181052 | 15 | 174 | 14.5 | 30.6 | 0.00 | 0.00 | 0.00 | 82 | 1005.9 |
| 20260506180547 | 15 | 219 | 14.5 | 24.1 | 0.00 | 0.00 | 0.00 | 82 | 1006.0 |
| 20260506180058 | 15 | 161 | 16.1 | 29.0 | 0.00 | 0.00 | 0.00 | 82 | 1006.1 |
| 20260506175551 | 15 | 167 | 12.9 | 32.2 | 0.00 | 0.00 | 0.00 | 81 | 1006.2 |
| 20260506175049 | 15 | 144 | 14.5 | 32.2 | 0.00 | 0.00 | 0.00 | 81 | 1006.0 |
| 20260506174552 | 15 | 157 | 14.5 | 29.0 | 0.00 | 0.00 | 0.00 | 80 | 1006.3 |
| 20260506174051 | 15 | 180 | 17.7 | 29.0 | 0.00 | 0.00 | 0.00 | 80 | 1006.2 |
| 20260506173547 | 16 | 201 | 14.5 | 33.8 | 0.00 | 0.00 | 0.00 | 79 | 1006.4 |
| 20260506173103 | 16 | 209 | 14.5 | 33.8 | 0.00 | 0.00 | 0.00 | 79 | 1006.4 |
| 20260506172551 | 16 | 165 | 16.1 | 33.8 | 0.00 | 0.00 | 0.00 | 78 | 1006.4 |
| 20260506172046 | 16 | 138 | 12.9 | 32.2 | 0.00 | 0.00 | 0.00 | 79 | 1006.4 |
| 20260506171557 | 16 | 146 | 16.1 | 38.6 | 0.00 | 0.00 | 0.00 | 79 | 1006.6 |
| 20260506171053 | 16 | 137 | 14.5 | 38.6 | 0.00 | 0.00 | 0.00 | 78 | 1006.6 |
| 20260506170549 | 17 | 210 | 19.3 | 38.6 | 0.00 | 0.00 | 0.00 | 78 | 1006.6 |
| 20260506170113 | 17 | 171 | 17.7 | 33.8 | 0.00 | 0.00 | 0.00 | 78 | 1006.7 |
| 20260506165553 | 17 | 153 | 14.5 | 27.4 | 0.00 | 0.00 | 0.00 | 79 | 1006.7 |
| 20260506165051 | 17 | 169 | 17.7 | 30.6 | 0.00 | 0.00 | 0.00 | 79 | 1006.9 |
| 20260506164601 | 17 | 214 | 19.3 | 30.6 | 0.00 | 0.00 | 0.00 | 79 | 1006.9 |
| 20260506164049 | 17 | 143 | 14.5 | 25.7 | 0.00 | 0.00 | 0.00 | 80 | 1006.9 |
| 20260506163553 | 17 | 156 | 12.9 | 27.4 | 0.00 | 0.00 | 0.00 | 80 | 1007.0 |
| 20260506163111 | 17 | 151 | 16.1 | 27.4 | 0.00 | 0.00 | 0.00 | 80 | 1007.1 |
| 20260506162550 | 17 | 187 | 6.4 | 20.9 | 0.00 | 0.00 | 0.00 | 81 | 1007.3 |
| 20260506162049 | 17 | 151 | 14.5 | 20.9 | 0.00 | 0.00 | 0.00 | 80 | 1007.5 |
| 20260506161555 | 17 | 156 | 9.7 | 17.7 | 0.00 | 0.00 | 0.00 | 80 | 1007.5 |
| 20260506161049 | 17 | 165 | 11.3 | 25.7 | 0.00 | 0.00 | 0.00 | 81 | 1007.7 |
| 20260506160549 | 17 | 170 | 14.5 | 25.7 | 0.00 | 0.00 | 0.00 | 80 | 1007.7 |
| 20260506160053 | 17 | 206 | 12.9 | 20.9 | 0.00 | 0.00 | 0.00 | 80 | 1007.9 |
| 20260506155548 | 17 | 154 | 6.4 | 20.9 | 0.00 | 0.00 | 0.00 | 81 | 1007.9 |
| 20260506155048 | 16 | 165 | 12.9 | 20.9 | 0.00 | 0.00 | 0.00 | 81 | 1007.9 |
| 20260506154553 | 16 | 167 | 12.9 | 20.9 | 0.00 | 0.00 | 0.00 | 81 | 1008.0 |
| 20260506154046 | 16 | 177 | 6.4 | 22.5 | 0.00 | 0.00 | 0.00 | 82 | 1008.1 |
| 20260506153550 | 16 | 205 | 11.3 | 22.5 | 0.00 | 0.00 | 0.00 | 83 | 1008.0 |
| 20260506153051 | 16 | 146 | 9.7 | 24.1 | 0.00 | 0.00 | 0.00 | 83 | 1008.0 |
| 20260506152549 | 16 | 200 | 9.7 | 24.1 | 0.00 | 0.00 | 0.00 | 84 | 1008.0 |
| 20260506152050 | 16 | 164 | 14.5 | 22.5 | 0.00 | 0.00 | 0.00 | 83 | 1008.0 |
| 20260506151602 | 16 | 157 | 9.7 | 22.5 | 0.00 | 0.00 | 0.00 | 83 | 1008.2 |
| 20260506151053 | 16 | 162 | 17.7 | 22.5 | 0.00 | 0.00 | 0.00 | 82 | 1008.2 |
| 20260506150550 | 16 | 193 | 11.3 | 24.1 | 0.00 | 0.00 | 0.00 | 83 | 1008.0 |
| 20260506150051 | 16 | 167 | 11.3 | 24.1 | 0.00 | 0.00 | 0.00 | 84 | 1007.8 |
| 20260506145549 | 16 | 214 | 16.1 | 24.1 | 0.00 | 0.00 | 0.00 | 83 | 1007.8 |
| 20260506145054 | 16 | 169 | 9.7 | 22.5 | 0.00 | 0.00 | 0.00 | 83 | 1007.9 |
| 20260506144601 | 16 | 160 | 16.1 | 22.5 | 0.00 | 0.00 | 0.00 | 83 | 1007.9 |
| 20260506144047 | 16 | 161 | 14.5 | 20.9 | 0.00 | 0.00 | 0.00 | 83 | 1008.0 |
| 20260506143548 | 16 | 158 | 14.5 | 19.3 | 0.00 | 0.00 | 0.00 | 83 | 1007.8 |
| 20260506143102 | 16 | 172 | 14.5 | 20.9 | 0.00 | 0.00 | 0.00 | 83 | 1007.7 |
| 20260506142549 | 15 | 176 | 14.5 | 20.9 | 0.00 | 0.00 | 0.00 | 84 | 1007.7 |
| 20260506142052 | 15 | 146 | 9.7 | 17.7 | 0.00 | 0.00 | 0.00 | 85 | 1007.7 |
| 20260506141553 | 15 | 149 | 12.9 | 19.3 | 0.00 | 0.00 | 0.00 | 85 | 1007.8 |
| 20260506141046 | 15 | 170 | 12.9 | 19.3 | 0.00 | 0.00 | 0.00 | 85 | 1007.8 |
| 20260506140549 | 15 | 176 | 6.4 | 19.3 | 0.00 | 0.00 | 0.00 | 86 | 1008.1 |
| 20260506140056 | 15 | 150 | 6.4 | 19.3 | 0.00 | 0.00 | 0.00 | 87 | 1008.1 |
| 20260506135549 | 14 | 167 | 9.7 | 17.7 | 0.00 | 0.00 | 0.00 | 86 | 1008.2 |
| 20260506135049 | 14 | 141 | 8.0 | 17.7 | 0.00 | 0.00 | 0.00 | 86 | 1008.2 |
| 20260506134546 | 14 | 162 | 11.3 | 19.3 | 0.00 | 0.00 | 0.00 | 86 | 1008.2 |
| 20260506134049 | 14 | 186 | 11.3 | 19.3 | 0.00 | 0.00 | 0.00 | 86 | 1008.2 |
| 20260506133549 | 14 | 153 | 9.7 | 17.7 | 0.00 | 0.00 | 0.00 | 86 | 1008.2 |
| 20260506133052 | 14 | 151 | 9.7 | 16.1 | 0.00 | 0.00 | 0.00 | 86 | 1008.2 |
| 20260506132549 | 14 | 202 | 8.0 | 16.1 | 0.00 | 0.00 | 0.00 | 86 | 1008.4 |
| 20260506132052 | 14 | 151 | 8.0 | 19.3 | 0.00 | 0.00 | 0.00 | 86 | 1008.3 |
| 20260506131550 | 14 | 154 | 12.9 | 19.3 | 0.00 | 0.00 | 0.00 | 86 | 1008.3 |
| 20260506131050 | 14 | 155 | 4.8 | 16.1 | 0.00 | 0.00 | 0.00 | 86 | 1008.5 |
| 20260506130546 | 14 | 201 | 9.7 | 16.1 | 0.00 | 0.00 | 0.00 | 86 | 1008.3 |
| 20260506130059 | 14 | 134 | 8.0 | 14.5 | 0.00 | 0.00 | 0.00 | 85 | 1008.4 |
| 20260506125550 | 14 | 160 | 4.8 | 14.5 | 0.00 | 0.00 | 0.00 | 85 | 1008.1 |
| 20260506125045 | 14 | 203 | 9.7 | 14.5 | 0.00 | 0.00 | 0.00 | 86 | 1008.2 |
| 20260506124552 | 14 | 203 | 4.8 | 12.9 | 0.00 | 0.00 | 0.00 | 86 | 1008.4 |
| 20260506124045 | 14 | 207 | 8.0 | 12.9 | 0.00 | 0.00 | 0.00 | 86 | 1008.3 |
| 20260506123545 | 14 | 181 | 4.8 | 19.3 | 0.00 | 0.00 | 0.00 | 86 | 1008.5 |
| 20260506123052 | 13 | 200 | 8.0 | 20.9 | 0.00 | 0.00 | 0.00 | 87 | 1008.5 |
| 20260506122545 | 13 | 158 | 14.5 | 20.9 | 0.00 | 0.00 | 0.00 | 87 | 1008.4 |
| 20260506122045 | 13 | 174 | 9.7 | 16.1 | 0.00 | 0.00 | 0.00 | 87 | 1008.3 |
| 20260506121552 | 13 | 135 | 9.7 | 16.1 | 0.00 | 0.00 | 0.00 | 87 | 1008.7 |
| 20260506121045 | 13 | 158 | 6.4 | 11.3 | 0.00 | 0.00 | 0.00 | 87 | 1008.7 |
| 20260506120545 | 13 | 158 | 4.8 | 9.7 | 0.00 | 0.00 | 0.00 | 87 | 1008.9 |
| 20260506120052 | 13 | 169 | 4.8 | 16.1 | 0.00 | 0.00 | 0.00 | 87 | 1008.8 |
| 20260506115545 | 13 | 194 | 9.7 | 16.1 | 0.00 | 0.00 | 0.00 | 87 | 1008.9 |
| 20260506115045 | 13 | 140 | 9.7 | 16.1 | 0.00 | 0.00 | 0.00 | 88 | 1008.8 |
| 20260506114555 | 13 | 155 | 4.8 | 11.3 | 0.00 | 0.00 | 0.00 | 89 | 1008.8 |
| 20260506114045 | 12 | 151 | 6.4 | 11.3 | 0.00 | 0.00 | 0.00 | 88 | 1009.1 |
| 20260506113546 | 12 | 156 | 1.6 | 9.7 | 0.00 | 0.00 | 0.00 | 89 | 1009.1 |
| 20260506113048 | 12 | 158 | 4.8 | 9.7 | 0.00 | 0.00 | 0.00 | 89 | 1009.0 |
| 20260506112546 | 12 | 146 | 0.0 | 6.4 | 0.00 | 0.00 | 0.00 | 89 | 1009.1 |
| 20260506112045 | 12 | 219 | 1.6 | 4.8 | 0.00 | 0.00 | 0.00 | 90 | 1009.2 |
| 20260506111549 | 12 | 190 | 1.6 | 4.8 | 0.00 | 0.00 | 0.00 | 90 | 1009.1 |
| 20260506111045 | 12 | 183 | 1.6 | 6.4 | 0.00 | 0.00 | 0.00 | 90 | 1008.8 |
| 20260506110548 | 12 | 0 | 1.6 | 6.4 | 0.00 | 0.00 | 0.00 | 90 | 1008.9 |
| 20260506110049 | 12 | 199 | 1.6 | 6.4 | 0.00 | 0.00 | 0.00 | 90 | 1008.9 |
| 20260506105545 | 12 | 229 | 0.0 | 9.7 | 0.00 | 0.00 | 0.00 | 91 | 1008.8 |
| 20260506105046 | 11 | 0 | 3.2 | 9.7 | 0.00 | 0.00 | 0.00 | 91 | 1008.9 |
| 20260506104548 | 11 | 162 | 1.6 | 6.4 | 0.00 | 0.00 | 0.00 | 91 | 1008.8 |
| 20260506104045 | 11 | 174 | 1.6 | 8.0 | 0.00 | 0.00 | 0.00 | 91 | 1009.0 |
| 20260506103547 | 11 | 177 | 4.8 | 11.3 | 0.00 | 0.00 | 0.00 | 91 | 1008.8 |
| 20260506103052 | 11 | 156 | 3.2 | 11.3 | 0.00 | 0.00 | 0.00 | 91 | 1008.9 |
| 20260506102546 | 11 | 158 | 4.8 | 11.3 | 0.00 | 0.00 | 0.00 | 91 | 1009.0 |
| 20260506102046 | 11 | 200 | 0.0 | 3.2 | 0.00 | 0.00 | 0.00 | 91 | 1009.1 |
| 20260506101549 | 11 | 238 | 0.0 | 6.4 | 0.00 | 0.00 | 0.00 | 91 | 1009.2 |
| 20260506101045 | 11 | 152 | 1.6 | 9.7 | 0.00 | 0.00 | 0.00 | 91 | 1009.1 |
| 20260506100545 | 11 | 147 | 6.4 | 9.7 | 0.00 | 0.00 | 0.00 | 91 | 1008.9 |
| 20260506100050 | 11 | 163 | 4.8 | 8.0 | 0.00 | 0.00 | 0.00 | 91 | 1008.9 |
| 20260506095546 | 10 | 164 | 3.2 | 8.0 | 0.00 | 0.00 | 0.00 | 92 | 1008.9 |
| 20260506095046 | 10 | 160 | 4.8 | 8.0 | 0.00 | 0.00 | 0.00 | 92 | 1008.9 |
| 20260506094548 | 10 | 178 | 3.2 | 6.4 | 0.00 | 0.00 | 0.00 | 92 | 1008.9 |
| 20260506094046 | 10 | 156 | 1.6 | 4.8 | 0.00 | 0.00 | 0.00 | 92 | 1008.9 |
| 20260506093545 | 10 | 207 | 1.6 | 6.4 | 0.00 | 0.00 | 0.00 | 91 | 1008.8 |
| 20260506093055 | 10 | 0 | 1.6 | 8.0 | 0.00 | 0.00 | 0.00 | 91 | 1008.8 |
| 20260506092550 | 10 | 175 | 4.8 | 8.0 | 0.00 | 0.00 | 0.00 | 91 | 1008.7 |
| 20260506092049 | 10 | 156 | 6.4 | 8.0 | 0.00 | 0.00 | 0.00 | 91 | 1008.6 |
| 20260506091550 | 10 | 157 | 4.8 | 8.0 | 0.00 | 0.00 | 0.00 | 91 | 1008.7 |
| 20260506091048 | 10 | 162 | 3.2 | 9.7 | 0.00 | 0.00 | 0.00 | 91 | 1008.8 |
| 20260506090545 | 10 | 153 | 4.8 | 9.7 | 0.00 | 0.00 | 0.00 | 91 | 1008.7 |
| 20260506090056 | 10 | 174 | 1.6 | 8.0 | 0.00 | 0.00 | 0.00 | 91 | 1008.8 |
| 20260506085545 | 10 | 167 | 4.8 | 8.0 | 0.00 | 0.00 | 0.00 | 90 | 1008.8 |
| 20260506085049 | 10 | 204 | 1.6 | 12.9 | 0.00 | 0.00 | 0.00 | 90 | 1008.7 |
| 20260506084612 | 10 | 187 | 4.8 | 12.9 | 0.00 | 0.00 | 0.00 | 90 | 1008.7 |
| 20260506084050 | 10 | 162 | 6.4 | 9.7 | 0.00 | 0.00 | 0.00 | 90 | 1008.7 |
| 20260506083550 | 11 | 165 | 4.8 | 11.3 | 0.00 | 0.00 | 0.00 | 89 | 1008.7 |
| 20260506083054 | 11 | 150 | 6.4 | 11.3 | 0.00 | 0.00 | 0.00 | 89 | 1008.7 |
| 20260506082550 | 11 | 160 | 6.4 | 9.7 | 0.00 | 0.00 | 0.00 | 89 | 1008.7 |
| 20260506082045 | 11 | 164 | 4.8 | 8.0 | 0.00 | 0.00 | 0.00 | 89 | 1008.7 |
| 20260506081553 | 11 | 151 | 3.2 | 6.4 | 0.00 | 0.00 | 0.00 | 88 | 1008.7 |
| 20260506081049 | 11 | 99 | 3.2 | 4.8 | 0.00 | 0.00 | 0.00 | 88 | 1008.7 |
| 20260506080547 | 11 | 157 | 0.0 | 4.8 | 0.00 | 0.00 | 0.00 | 88 | 1008.8 |
| 20260506073100 | 11 | 89 | 0.0 | 8.0 | 0.00 | 0.00 | 0.00 | 87 | 1008.6 |
| 20260506072545 | 11 | 117 | 0.0 | 8.0 | 0.00 | 0.00 | 0.00 | 86 | 1008.4 |
| 20260506072049 | 11 | 145 | 4.8 | 8.0 | 0.00 | 0.00 | 0.00 | 86 | 1008.2 |
| 20260506071554 | 11 | 149 | 4.8 | 8.0 | 0.00 | 0.00 | 0.00 | 86 | 1008.0 |
| 20260506071045 | 11 | 150 | 3.2 | 9.7 | 0.00 | 0.00 | 0.00 | 86 | 1008.1 |